Location: *
(51.3000°S, 179.7000°E)
Time: 08:41:25
(UTC+00:00)

Daily predictions for brighter satellites

Satellite Brightness Start Highest point End
(mag) Time Altitude Azimuth Time Altitude Azimuth Time Altitude Azimuth
SJ 16-02 1.5 12:03:17 34° N 12:05:01 63° ENE 12:09:26 10° SSE
Meteor 2-5 Rocket 3.8 12:04:46 10° S 12:10:38 77° ESE 12:14:11 24° NNE
Cosmos 1674 Rocket 4.0 12:07:44 10° S 12:12:13 58° ESE 12:14:39 25° NNE
Cosmos 1697 Rocket 2.8 12:09:50 10° SW 12:15:29 60° WNW 12:18:30 27° N
Spot 4 3.9 12:11:40 10° SSE 12:16:34 73° ENE 12:18:58 30° N
ADEOS II 3.4 12:12:19 10° NE 12:17:09 37° ESE 12:22:02 10° S
Cosmos 1908 3.1 12:20:56 39° N 12:22:15 80° E 12:26:05 10° SSE
Cosmos 1703 3.8 12:18:26 10° S 12:22:16 52° ESE 12:24:12 26° NE
MOS 1 Rocket 4.2 12:17:25 10° S 12:22:45 51° WSW 12:26:10 21° NW
Cosmos 1821 Rocket 4.1 12:21:01 10° SSW 12:27:17 70° W 12:31:07 25° N
GP-B 3.4 12:23:33 10° S 12:27:59 56° W 12:30:02 29° NNW
ARGOS Delta rocket 3.8 12:23:44 10° SSE 12:28:23 67° E 12:30:32 30° N
USA 81 4.1 12:25:49 28° N 12:28:44 79° E 12:34:06 10° S
Cosmos 1570 Rocket 4.3 12:24:26 10° SSW 12:29:38 52° WNW 12:32:09 28° NNW
Resurs 1-4 Rocket 2.3 12:26:23 19° NNE 12:30:10 70° ESE 12:35:30 10° SSW
IDEFIX/ARIANE 42P 2.8 12:26:51 19° NNE 12:30:37 68° ESE 12:35:57 10° S
Cosmos 1470 3.4 12:29:47 28° NW 12:31:25 45° WSW 12:35:15 10° S
Cosmos 773 Rocket 4.5 12:26:41 10° SSW 12:32:01 61° ESE 12:36:50 13° NE
ATLAS 3B R/B 2.5 12:27:42 10° SW 12:34:08 83° SE 12:40:27 10° NE
Cosmos 836 Rocket 4.5 12:30:52 10° SSW 12:36:15 79° WNW 12:39:37 23° NNE
SL-16 R/B 3.7 12:31:47 10° SSW 12:37:08 37° SE 12:42:25 10° ENE
Meteor 1-22 Rocket 4.1 12:35:05 27° NNW 12:38:03 87° WSW 12:43:28 10° SSE
Lacrosse 5 rocket 1.4 12:38:46 10° WSW 12:42:24 66° SSE 12:46:05 10° ENE
Meteor 1-15 Rocket 4.3 12:39:22 25° NNW 12:42:49 75° WSW 12:48:35 10° S
CZ-2D R/B 2.2 12:39:10 20° NNE 12:43:05 84° ESE 12:48:42 10° SSW
H-2A R/B 4.3 12:42:20 28° NW 12:43:48 37° W 12:47:44 10° SSW
Cosmos 1825 4.4 12:41:06 10° SSE 12:43:52 20° ESE 12:46:37 10° ENE
Cosmos 1980 Rocket 2.2 12:39:04 10° SSW 12:44:46 71° WNW 12:48:42 21° NNE
COSMOS 2406 3.7 12:41:45 24° N 12:44:57 49° ENE 12:50:32 10° SE
ATLAS CENTAUR R/B 2.2 12:42:00 10° SW 12:46:28 55° SE 12:50:49 10° ENE
Cosmos 2369 3.7 12:41:29 10° SSW 12:47:14 78° WNW 12:51:33 18° NNE
ATLAS 5 CENTAUR R/B 4.4 12:43:21 10° SW 12:49:26 71° NW 13:16:52 10° NNE
Cosmos 1378 Rocket 3.8 12:46:35 10° SSW 12:50:54 55° W 12:52:55 29° NNW
Cosmos 1340 2.9 12:49:31 31° NNE 12:50:58 55° E 12:54:33 10° SSE
Cosmos 1908 Rocket 3.8 12:52:20 26° N 12:54:47 64° E 12:59:17 10° SSE
Cosmos 1733 Rocket 3.7 12:54:41 25° NW 12:56:56 47° WSW 13:01:14 10° S
USA 306 4.2 12:57:19 17° NE 12:57:24 17° NE 12:59:49 10° E
Cosmos 1300 2.8 12:57:13 30° N 12:58:55 65° E 13:02:39 10° SSE
Cosmos 1455 4.5 12:59:11 10° NE 13:01:38 17° E 13:04:05 10° SE
Cosmos 1833 Rocket 3.4 12:58:35 16° NW 13:03:02 50° SW 13:08:35 10° SSE
Cosmos 1408 2.2 13:00:05 10° SSW 13:03:24 72° W 13:04:36 36° N
Cosmos 158 Rocket 3.9 13:00:06 10° SSW 13:04:58 59° WNW 13:07:53 23° N
Cosmos 2221 Rocket 4.2 13:00:43 10° SSW 13:05:07 45° W 13:07:18 26° NNW
Meteor 2-10 Rocket 3.8 13:03:32 23° N 13:07:18 81° E 13:13:14 10° SSE
ATLAS 2AS CENTAUR R/B 2.7 13:02:09 17° NW 13:07:27 83° SW 13:14:32 10° SE
FENGYUN 3A 4.2 13:02:17 10° NNE 13:07:38 60° ESE 13:13:01 10° S
Cosmos 1356 Rocket 4.3 13:06:19 10° SSW 13:10:15 37° W 13:12:03 25° NW
Cosmos 1633 2.0 13:13:57 10° S 13:17:03 90° WSW 13:18:24 30° N
ISS -1.6 13:17:10 14° NE 13:17:22 14° NE 13:19:18 10° ENE
Lacrosse 4 Rocket 4.3 13:16:41 10° SW 13:18:14 12° SSW 13:19:47 10° S
Cosmos 1486 Rocket 4.1 13:14:50 22° NNW 13:18:19 77° WSW 13:23:45 10° SSE
Cosmos 1758 3.8 13:16:23 25° NW 13:18:27 48° WSW 13:22:23 10° S
Cosmos 2278 3.7 13:17:31 10° SSW 13:23:17 88° WNW 13:29:01 10° NNE
NPP 4.2 13:22:23 21° NNW 13:25:37 44° W 13:30:52 10° SSW
Cosmos 2082 Rocket 2.2 13:22:45 21° NNW 13:26:44 85° WSW 13:32:32 10° SSE
Helios 1A Rocket 2.8 13:23:13 10° SSE 13:27:15 78° WSW 13:29:33 24° NNW
Cosmos 1300 Rocket 4.0 13:27:30 18° N 13:30:45 59° E 13:35:14 10° SSE
Cosmos 2098 Rocket 2.5 13:30:36 29° NW 13:31:47 52° WSW 13:34:56 10° S
USA 229 DEB 3.9 13:25:05 10° SW 13:32:01 71° SE 13:38:17 10° NE
USA 229 3.9 13:25:08 10° SW 13:32:05 70° SE 13:38:21 10° NE
Cosmos 2237 4.4 13:26:59 10° SSW 13:32:47 79° ESE 13:38:33 10° NE
CZ-2C R/B 4.1 13:29:44 10° NE 13:34:23 34° ESE 13:38:59 10° S
USA 308 1.3 13:33:47 42° NW 13:34:26 76° NNE 13:37:07 10° ESE
CZ-2C R/B 3.6 13:29:19 10° NNE 13:34:54 68° ESE 13:40:45 10° S
Cosmos 1025 Rocket 3.2 13:32:40 10° SSW 13:37:06 60° W 13:40:05 20° N
ALOS 2 4.0 13:34:41 10° S 13:38:32 29° WSW 13:41:37 14° WNW
Cosmos 1777 Rocket 4.0 13:36:00 20° NNW 13:39:44 80° ENE 13:45:01 10° SSE
Cosmos 1867 4.1 13:36:55 10° SW 13:41:53 38° WNW 13:46:02 14° N
ALOS 2.5 13:37:24 10° NNE 13:42:04 72° ESE 13:46:48 10° S
Cosmos 2360 Rocket 3.1 13:36:46 10° SSW 13:42:21 51° SE 13:47:54 10° NE
SJ 16-02 3.3 13:40:29 10° W 13:43:52 21° SW 13:47:17 10° S
NOSS 3-1 (A) 3.4 13:37:47 10° SW 13:44:20 57° NW 13:49:37 10° NNE
NOSS 3-1 (C) 4.1 13:39:08 10° SW 13:44:42 31° WNW 13:48:04 17° NNW
Genesis I 3.7 13:41:37 10° WSW 13:45:03 35° WNW 13:47:08 19° N
USA 215 4.5 13:44:50 17° NW 13:46:48 19° WNW 13:51:18 10° W
Cosmos 2219 Rocket 4.0 13:43:33 10° SSW 13:48:41 34° SE 13:53:47 10° ENE
Cosmos 1727 Rocket 4.4 13:42:51 11° N 13:48:44 64° E 13:55:00 10° SSE
Cosmos 1953 2.3 13:46:52 20° NNW 13:49:29 72° WSW 13:53:31 10° S
CZ-4 R/B 3.8 13:46:47 10° NNE 13:51:30 85° WNW 13:56:15 10° SSW
Thor Agena Rocket 3.6 13:48:56 10° NNE 13:54:05 84° ESE 13:59:22 10° SSW
Cosmos 1503 Rocket 4.3 13:52:19 17° NW 13:56:19 60° WSW 14:01:31 10° SSE
ADEOS II 2.7 13:53:01 17° NNW 13:56:46 40° W 14:01:47 10° SSW
Cosmos 1605 Rocket 4.2 13:51:53 10° SSW 13:57:52 53° W 14:03:04 14° NNW
Meteor 1-16 Rocket 4.4 13:54:13 17° NNW 13:58:28 60° WSW 14:04:09 10° S
Cosmos 1328 4.0 13:55:10 10° SSW 13:59:02 53° W 14:02:01 16° NNW
Cosmos 1315 Rocket 3.5 13:55:17 10° SSW 13:59:03 38° W 14:01:41 17° NNW
USA 305 3.1 13:58:56 16° NNE 13:59:05 16° NE 14:00:29 10° E
Cosmos 2322 Rocket 2.3 13:53:32 10° SSW 13:59:15 82° ESE 14:04:55 10° NNE
Cosmos 304 Rocket 4.4 13:55:33 13° N 13:59:40 50° ENE 14:04:22 10° SSE
USA 281 3.7 13:53:43 10° NE 14:00:13 64° SE 14:06:47 10° SSW
ATLAS 5 CENTAUR R/B 4.4 13:55:50 10° SW 14:01:44 32° SSE 14:06:42 10° ESE
Meteor 1-21 Rocket 4.4 13:57:52 10° SSW 14:03:27 57° W 14:08:38 11° N
USA 307 2.8 14:04:20 20° N 14:05:01 24° NE 14:06:57 10° E
Cosmos 1782 Rocket 4.0 14:02:06 17° NNW 14:05:26 51° WSW 14:09:55 10° S
Meteor 1-4 Rocket 2.2 14:03:28 10° SSW 14:06:45 88° ESE 14:09:59 10° NNE
Cosmos 2333 Rocket 2.8 14:01:24 10° SSW 14:07:06 62° SE 14:12:44 10° NE
Cosmos 2173 Rocket 4.2 14:00:56 10° S 14:07:09 75° ESE 14:13:17 10° NNE
Cosmos 1354 Rocket 4.3 14:03:28 15° NW 14:07:45 62° WSW 14:13:01 10° SSE
Cosmos 1892 3.4 14:07:00 10° SSW 14:10:24 34° W 14:12:47 16° NNW
Resurs 1-4 Rocket 3.6 14:07:27 14° NW 14:10:30 21° W 14:14:29 10° SW
IDEFIX/ARIANE 42P 4.0 14:07:36 14° NW 14:10:40 22° W 14:14:43 10° SW
Okean 2 Rocket 3.8 14:13:38 10° N 14:18:01 54° E 14:22:25 10° SSE
Cosmos 2100 Rocket 4.0 14:11:48 10° S 14:18:04 90° WSW 14:24:18 10° N
Envisat 3.4 14:13:09 10° NNE 14:18:14 68° ESE 14:23:23 10° S
Cosmos 1802 Rocket 4.4 14:11:56 10° S 14:18:25 70° ESE 14:24:45 10° NNE
Geosat 4.0 14:13:33 10° NNE 14:18:37 85° WNW 14:23:44 10° SSW
Cosmos 1825 2.8 14:15:19 10° SSW 14:18:41 36° W 14:21:21 14° NNW
Cosmos 371 Rocket 3.4 14:15:44 14° NNW 14:20:02 89° W 14:25:02 10° SSE
Lacrosse 5 rocket 2.0 14:17:35 10° WSW 14:20:44 27° NW 14:23:55 10° NNE
SL-16 R/B 2.4 14:15:53 10° SW 14:21:26 51° WNW 14:26:55 10° N
Cosmos 1975 Rocket 3.9 14:18:13 10° SSW 14:22:11 33° W 14:25:39 13° NNW
Cosmos 923 Rocket 4.4 14:17:18 10° SSW 14:22:35 69° ESE 14:27:50 10° NNE
CZ-2D R/B 3.8 14:20:28 11° NW 14:23:48 18° W 14:27:36 10° SW
ATLAS 3B R/B 3.5 14:19:05 10° WSW 14:24:05 25° WNW 14:29:05 10° NNW
ATLAS CENTAUR R/B 2.5 14:20:29 10° WSW 14:24:18 28° WNW 14:28:01 10° N
Cosmos 990 Rocket 4.2 14:20:14 11° NNW 14:25:14 74° ENE 14:30:33 10° SSE
Cosmos 1980 Rocket 4.1 14:25:12 10° WSW 14:27:44 13° W 14:30:16 10° WNW
METEOR-M 4.2 14:23:06 10° NNE 14:28:30 81° WNW 14:33:58 10° SSW
COSMOS 2406 4.2 14:24:04 10° WNW 14:29:26 39° SW 14:34:53 10° SSE
YAOGAN 6 3.3 14:27:00 10° NNE 14:30:16 52° ESE 14:33:38 10° S
USA 306 2.4 14:29:08 12° WNW 14:32:20 74° NNE 14:36:05 10° ESE
Cosmos 1455 2.7 14:32:57 12° NNW 14:36:10 44° WSW 14:39:45 10° S
Cosmos 1725 Rocket 4.3 14:29:57 10° S 14:36:24 76° ESE 14:42:46 10° NNE
IRS-1D 3.6 14:31:37 10° N 14:36:55 71° WNW 14:42:21 10° SSW
Cosmos 44 Rocket 3.5 14:32:37 10° NW 14:37:13 61° SW 14:41:50 10° SE
Okean 1 Rocket 3.9 14:33:20 10° N 14:37:42 51° E 14:42:06 10° SSE
Cosmos 1680 Rocket 3.9 14:34:11 10° SSW 14:39:34 71° ESE 14:44:55 10° NNE
H-2A R/B 4.4 14:35:17 10° ENE 14:39:45 29° ESE 14:44:20 10° S
Cosmos 1536 Rocket 3.6 14:36:39 10° SSW 14:41:12 71° W 14:45:41 10° N
Cosmos 1242 Rocket 3.1 14:39:26 10° S 14:42:43 54° ESE 14:45:58 10° NNE
Cosmos 2333 4.3 14:38:14 10° SSW 14:43:56 90° WNW 14:49:37 10° NNE
Cosmos 2112 Rocket 4.4 14:45:17 10° SSW 14:50:41 75° ESE 14:56:04 10° NNE
COBE Rocket 3.9 14:46:44 10° N 14:51:22 62° W 14:56:05 10° SSW
MOZ.5/SAFIR/RUBIN 5/SL-8 3.9 14:46:48 10° SSE 14:51:35 73° WSW 14:56:15 10° NNW
ISS -3.4 14:50:14 10° NW 14:53:34 52° NNE 14:56:56 10° E
Cosmos 2151 Rocket 3.8 14:51:39 10° NNW 14:56:11 66° WSW 15:00:47 10° S
ATLAS 2AS CENTAUR R/B 4.0 14:53:03 10° W 14:59:18 37° SSW 15:05:53 10° SE
SL-16 R/B 3.8 14:54:17 10° SSE 15:00:09 40° E 15:05:56 10° NNE
Cosmos 1459 Rocket 4.3 14:55:01 10° SSW 15:01:15 52° W 15:07:25 10° NNW
IRIDIUM 104 4.4 14:57:47 10° S 15:03:08 85° W 15:08:25 10° N
DNEPR-1 R/B 3.7 14:59:17 10° NW 15:03:38 65° SW 15:07:44 10° SE
Cosmos 1441 Rocket 3.2 15:01:36 10° NNW 15:05:29 78° WSW 15:09:24 10° S
